AAY958 KBGR-KPGD

Flight info

Callsign AAY958
Flight time 3h 15m
Altitude 36000
Route BEEKN Q97 CAKET ISUZO KYYUU LUBBR4
Aircraft A320/M-SDE3FGHIRWY/LB1

Departure

Time 2026-04-26 17:34
Airport Bangor International Airport (KBGR)

Arrival

Time 2026-04-26 20:50
Airport Punta Gorda Airport (KPGD)
Time Latitude Longitude Altitude Speed Heading
2026-04-26 17:08 44.80749 -68.81690 182 ft 0 kts 44°
2026-04-26 17:28 44.80748 -68.81691 181 ft 1 kts 44°
2026-04-26 17:28 44.80730 -68.81714 181 ft 4 kts 45°
2026-04-26 17:28 44.80714 -68.81742 181 ft 4 kts 72°
2026-04-26 17:28 44.80712 -68.81762 181 ft 0 kts 108°
2026-04-26 17:30 44.80711 -68.81759 181 ft 3 kts 108°
2026-04-26 17:31 44.80653 -68.81704 181 ft 15 kts 174°
2026-04-26 17:31 44.80569 -68.81781 180 ft 15 kts 222°
2026-04-26 17:31 44.80490 -68.81842 180 ft 13 kts 157°
2026-04-26 17:31 44.80421 -68.81747 180 ft 17 kts 136°
2026-04-26 17:32 44.80329 -68.81613 178 ft 20 kts 133°
2026-04-26 17:32 44.80229 -68.81465 177 ft 20 kts 134°
2026-04-26 17:32 44.80127 -68.81319 176 ft 22 kts 134°
2026-04-26 17:32 44.80017 -68.81160 174 ft 23 kts 134°
2026-04-26 17:33 44.79909 -68.81013 173 ft 20 kts 152°
2026-04-26 17:33 44.79790 -68.81075 173 ft 20 kts 222°
2026-04-26 17:33 44.79698 -68.81223 175 ft 19 kts 232°
2026-04-26 17:34 44.80074 -68.81846 180 ft 101 kts 314°
2026-04-26 17:34 44.80688 -68.82732 192 ft 153 kts 314°
2026-04-26 17:34 44.81491 -68.83885 590 ft 164 kts 315°
2026-04-26 17:34 44.82312 -68.85044 1285 ft 166 kts 316°
2026-04-26 17:35 44.83131 -68.86195 1960 ft 167 kts 316°
2026-04-26 17:35 44.83986 -68.87400 2348 ft 187 kts 316°
2026-04-26 17:35 44.84955 -68.88769 2668 ft 209 kts 316°
2026-04-26 17:35 44.86046 -68.90313 3030 ft 234 kts 316°
2026-04-26 17:36 44.87123 -68.92167 3488 ft 256 kts 297°
2026-04-26 17:36 44.87506 -68.94635 4230 ft 265 kts 267°
2026-04-26 17:36 44.86932 -68.97108 5047 ft 271 kts 234°
2026-04-26 17:36 44.85593 -68.98994 5921 ft 274 kts 220°
2026-04-26 17:37 44.84132 -69.00746 6747 ft 278 kts 220°
2026-04-26 17:37 44.82640 -69.02515 7563 ft 281 kts 220°
2026-04-26 17:37 44.81645 -69.03697 8067 ft 285 kts 220°
2026-04-26 17:38 44.78577 -69.07363 9588 ft 294 kts 220°
2026-04-26 17:38 44.77011 -69.09238 10319 ft 299 kts 220°
2026-04-26 17:38 44.75365 -69.11209 10588 ft 322 kts 220°
2026-04-26 17:38 44.73601 -69.13326 10793 ft 345 kts 220°
2026-04-26 17:39 44.71741 -69.15556 11285 ft 355 kts 220°
2026-04-26 17:39 44.69847 -69.17825 11941 ft 359 kts 220°
2026-04-26 17:39 44.67937 -69.20113 12619 ft 363 kts 220°
2026-04-26 17:39 44.66009 -69.22423 13281 ft 366 kts 220°
2026-04-26 17:40 44.64058 -69.24756 13958 ft 369 kts 220°
2026-04-26 17:40 44.62759 -69.26309 14381 ft 371 kts 220°
2026-04-26 17:40 44.60119 -69.29462 15218 ft 374 kts 220°
2026-04-26 17:40 44.58148 -69.31806 15806 ft 378 kts 220°
2026-04-26 17:41 44.56137 -69.34198 16406 ft 380 kts 220°
2026-04-26 17:41 44.54113 -69.36611 16969 ft 383 kts 220°
2026-04-26 17:41 44.52075 -69.39040 17519 ft 386 kts 220°
2026-04-26 17:41 44.50018 -69.41483 18068 ft 389 kts 220°
2026-04-26 17:42 44.47947 -69.43935 18594 ft 392 kts 220°
2026-04-26 17:42 44.45863 -69.46399 19130 ft 393 kts 220°
2026-04-26 17:42 44.43766 -69.48879 19624 ft 396 kts 220°
2026-04-26 17:42 44.41649 -69.51380 20106 ft 399 kts 220°
2026-04-26 17:43 44.39527 -69.53889 20597 ft 401 kts 221°
2026-04-26 17:43 44.37395 -69.56412 21102 ft 402 kts 221°
2026-04-26 17:43 44.35258 -69.58938 21598 ft 403 kts 221°
2026-04-26 17:43 44.33113 -69.61475 22066 ft 404 kts 221°
2026-04-26 17:44 44.30960 -69.64012 22515 ft 406 kts 221°
2026-04-26 17:44 44.28791 -69.66560 22954 ft 408 kts 221°
2026-04-26 17:44 44.26610 -69.69116 23369 ft 410 kts 221°
2026-04-26 17:44 44.24415 -69.71683 23794 ft 411 kts 221°
2026-04-26 17:45 44.22220 -69.74248 24217 ft 413 kts 221°
2026-04-26 17:45 44.20016 -69.76829 24616 ft 414 kts 221°
2026-04-26 17:45 44.17802 -69.79423 24993 ft 416 kts 221°
2026-04-26 17:45 44.15615 -69.81984 25368 ft 418 kts 221°
2026-04-26 17:46 44.13385 -69.84591 25755 ft 419 kts 221°
2026-04-26 17:46 44.11153 -69.87194 26130 ft 420 kts 221°
2026-04-26 17:46 44.08904 -69.89810 26487 ft 422 kts 221°
2026-04-26 17:46 44.06651 -69.92429 26839 ft 423 kts 221°
2026-04-26 17:47 44.04391 -69.95057 27182 ft 424 kts 221°
2026-04-26 17:47 44.02886 -69.96809 27400 ft 425 kts 221°
2026-04-26 17:47 43.99845 -70.00344 27818 ft 427 kts 221°
2026-04-26 17:47 43.97565 -70.02993 28116 ft 428 kts 221°
2026-04-26 17:48 43.95268 -70.05659 28410 ft 429 kts 221°
2026-04-26 17:48 43.92971 -70.08318 28683 ft 431 kts 221°
2026-04-26 17:48 43.90663 -70.10979 28968 ft 432 kts 221°
2026-04-26 17:48 43.88349 -70.13642 29215 ft 433 kts 221°
2026-04-26 17:49 43.86027 -70.16315 29467 ft 434 kts 221°
2026-04-26 17:49 43.83705 -70.18992 29776 ft 434 kts 221°
2026-04-26 17:49 43.81389 -70.21664 30149 ft 432 kts 221°
2026-04-26 17:49 43.79108 -70.24291 30514 ft 431 kts 221°
2026-04-26 17:50 43.76808 -70.26931 30866 ft 429 kts 221°
2026-04-26 17:50 43.74510 -70.29563 31222 ft 428 kts 221°
2026-04-26 17:50 43.72217 -70.32185 31543 ft 427 kts 221°
2026-04-26 17:50 43.69919 -70.34812 31865 ft 427 kts 221°
2026-04-26 17:51 43.67639 -70.37421 32182 ft 426 kts 221°
2026-04-26 17:51 43.65359 -70.40028 32506 ft 425 kts 221°
2026-04-26 17:51 43.63087 -70.42627 32824 ft 424 kts 222°
2026-04-26 17:51 43.60821 -70.45219 33143 ft 423 kts 222°
2026-04-26 17:52 43.58554 -70.47803 33442 ft 422 kts 221°
2026-04-26 17:52 43.56295 -70.50378 33740 ft 421 kts 221°
2026-04-26 17:52 43.54037 -70.52940 34062 ft 419 kts 221°
2026-04-26 17:52 43.51786 -70.55489 34358 ft 419 kts 221°
2026-04-26 17:53 43.49533 -70.58040 34631 ft 418 kts 221°
2026-04-26 17:53 43.47283 -70.60586 34869 ft 419 kts 221°
2026-04-26 17:53 43.45033 -70.63131 35113 ft 419 kts 221°
2026-04-26 17:54 43.40536 -70.68221 35587 ft 419 kts 222°
2026-04-26 17:54 43.38287 -70.70765 35798 ft 419 kts 221°
2026-04-26 17:54 43.36036 -70.73306 36008 ft 419 kts 220°
2026-04-26 17:54 43.33638 -70.75612 36161 ft 422 kts 213°
2026-04-26 17:55 43.31072 -70.77605 36204 ft 425 kts 212°
2026-04-26 17:55 43.25933 -70.81551 36190 ft 426 kts 212°
2026-04-26 17:56 43.20764 -70.85518 36181 ft 426 kts 212°
2026-04-26 17:57 43.10445 -70.93431 36188 ft 424 kts 212°
2026-04-26 17:57 43.05294 -70.97377 36197 ft 424 kts 212°
2026-04-26 17:58 42.94980 -71.05237 36200 ft 424 kts 212°
2026-04-26 17:59 42.87745 -71.11921 36203 ft 419 kts 220°
2026-04-26 17:59 42.83149 -71.16822 36202 ft 419 kts 220°
2026-04-26 18:00 42.78554 -71.21709 36203 ft 419 kts 220°
2026-04-26 18:00 42.73949 -71.26586 36205 ft 419 kts 220°
2026-04-26 18:01 42.69345 -71.31465 36207 ft 419 kts 220°
2026-04-26 18:01 42.64751 -71.36339 36210 ft 419 kts 220°
2026-04-26 18:02 42.60919 -71.40384 36212 ft 419 kts 220°
2026-04-26 18:02 42.55538 -71.46045 36211 ft 419 kts 220°
2026-04-26 18:03 42.50935 -71.50890 36211 ft 418 kts 220°
2026-04-26 18:03 42.46362 -71.55695 36209 ft 418 kts 220°
2026-04-26 18:04 42.41768 -71.60504 36208 ft 417 kts 220°
2026-04-26 18:05 42.34895 -71.67680 36201 ft 416 kts 220°
2026-04-26 18:05 42.30317 -71.72460 36200 ft 416 kts 220°
2026-04-26 18:06 42.25726 -71.77246 36172 ft 417 kts 220°
2026-04-26 18:06 42.21112 -71.82030 36162 ft 419 kts 220°
2026-04-26 18:07 42.16479 -71.86836 36163 ft 420 kts 220°
2026-04-26 18:07 42.11544 -71.91111 36168 ft 425 kts 211°
2026-04-26 18:08 42.06309 -71.94707 36170 ft 425 kts 211°
2026-04-26 18:08 42.01034 -71.98316 36172 ft 426 kts 211°
2026-04-26 18:09 41.95752 -72.01942 36173 ft 426 kts 211°
2026-04-26 18:09 41.90462 -72.05561 36182 ft 426 kts 211°
2026-04-26 18:10 41.85175 -72.09166 36184 ft 427 kts 211°
2026-04-26 18:10 41.79882 -72.12771 36187 ft 427 kts 211°
2026-04-26 18:11 41.74583 -72.16379 36194 ft 427 kts 210°
2026-04-26 18:11 41.69282 -72.19979 36200 ft 427 kts 211°
2026-04-26 18:12 41.63987 -72.23567 36202 ft 426 kts 211°
2026-04-26 18:12 41.58696 -72.27153 36204 ft 426 kts 211°
2026-04-26 18:13 41.53446 -72.30705 36203 ft 426 kts 211°
2026-04-26 18:13 41.48160 -72.34262 36210 ft 425 kts 211°
2026-04-26 18:14 41.42873 -72.37813 36216 ft 425 kts 211°
2026-04-26 18:14 41.37595 -72.41350 36217 ft 424 kts 211°
2026-04-26 18:15 41.32331 -72.44884 36220 ft 423 kts 211°
2026-04-26 18:15 41.27126 -72.48501 36218 ft 419 kts 217°
2026-04-26 18:16 41.22350 -72.52897 36218 ft 417 kts 218°
2026-04-26 18:16 41.15198 -72.59484 36217 ft 417 kts 218°
2026-04-26 18:17 41.10437 -72.63859 36218 ft 416 kts 218°
2026-04-26 18:17 41.05680 -72.68228 36219 ft 416 kts 218°
2026-04-26 18:18 41.00925 -72.72582 36217 ft 415 kts 218°
2026-04-26 18:18 40.96169 -72.76927 36216 ft 415 kts 218°
2026-04-26 18:19 40.91435 -72.81277 36216 ft 414 kts 219°
2026-04-26 18:19 40.86804 -72.85780 36218 ft 413 kts 220°
2026-04-26 18:20 40.82219 -72.90335 36217 ft 412 kts 220°
2026-04-26 18:20 40.79176 -72.93331 36217 ft 412 kts 220°
2026-04-26 18:21 40.72989 -72.99342 36219 ft 412 kts 220°
2026-04-26 18:21 40.68365 -73.03803 36213 ft 412 kts 220°
2026-04-26 18:22 40.63744 -73.08269 36211 ft 411 kts 220°
2026-04-26 18:22 40.59163 -73.12697 36209 ft 411 kts 220°
2026-04-26 18:23 40.54550 -73.17150 36206 ft 411 kts 220°
2026-04-26 18:23 40.49933 -73.21589 36205 ft 411 kts 220°
2026-04-26 18:24 40.45316 -73.26032 36205 ft 411 kts 220°
2026-04-26 18:24 40.41483 -73.29714 36204 ft 411 kts 220°
2026-04-26 18:25 40.36867 -73.34141 36204 ft 411 kts 220°
2026-04-26 18:25 40.32251 -73.38569 36203 ft 411 kts 220°
2026-04-26 18:26 40.27627 -73.42973 36205 ft 411 kts 219°
2026-04-26 18:26 40.23002 -73.47375 36210 ft 410 kts 219°
2026-04-26 18:27 40.18377 -73.51749 36214 ft 410 kts 219°
2026-04-26 18:27 40.13742 -73.56116 36213 ft 410 kts 219°
2026-04-26 18:28 40.09114 -73.60476 36209 ft 410 kts 219°
2026-04-26 18:28 40.04488 -73.64828 36205 ft 410 kts 219°
2026-04-26 18:29 39.99857 -73.69184 36205 ft 410 kts 219°
2026-04-26 18:29 39.95067 -73.73149 36207 ft 415 kts 208°
2026-04-26 18:30 39.89708 -73.76020 36208 ft 416 kts 207°
2026-04-26 18:30 39.84349 -73.78872 36204 ft 416 kts 207°
2026-04-26 18:31 39.78993 -73.81728 36200 ft 416 kts 207°
2026-04-26 18:31 39.73641 -73.84572 36197 ft 415 kts 207°
2026-04-26 18:32 39.68288 -73.87414 36196 ft 415 kts 207°
2026-04-26 18:32 39.62930 -73.90253 36194 ft 416 kts 207°
2026-04-26 18:33 39.57572 -73.93091 36195 ft 415 kts 207°
2026-04-26 18:33 39.52250 -73.95909 36195 ft 415 kts 207°
2026-04-26 18:34 39.46859 -73.98745 36192 ft 415 kts 207°
2026-04-26 18:34 39.41633 -74.01716 36196 ft 409 kts 215°
2026-04-26 18:35 39.37165 -74.06158 36182 ft 405 kts 224°
2026-04-26 18:35 39.32878 -74.10868 36173 ft 405 kts 224°
2026-04-26 18:36 39.28573 -74.15556 36170 ft 405 kts 223°
2026-04-26 18:36 39.24258 -74.20234 36166 ft 405 kts 223°
2026-04-26 18:37 39.19948 -74.24910 36169 ft 405 kts 223°
2026-04-26 18:37 39.15639 -74.29587 36175 ft 405 kts 223°
2026-04-26 18:38 39.11327 -74.34269 36174 ft 405 kts 223°
2026-04-26 18:38 39.07015 -74.38942 36181 ft 405 kts 223°
2026-04-26 18:39 39.02700 -74.43600 36182 ft 405 kts 223°
2026-04-26 18:39 38.98383 -74.48246 36184 ft 404 kts 223°
2026-04-26 18:40 38.94094 -74.52854 36184 ft 404 kts 223°
2026-04-26 18:40 38.89883 -74.57631 36184 ft 403 kts 225°
2026-04-26 18:41 38.85784 -74.62531 36189 ft 402 kts 226°
2026-04-26 18:41 38.81671 -74.67411 36189 ft 402 kts 225°
2026-04-26 18:42 38.77536 -74.72249 36181 ft 403 kts 225°
2026-04-26 18:42 38.73351 -74.77032 36179 ft 403 kts 223°
2026-04-26 18:43 38.68997 -74.81578 36175 ft 404 kts 221°
2026-04-26 18:43 38.64594 -74.86052 36177 ft 404 kts 222°
2026-04-26 18:44 38.60213 -74.90563 36179 ft 404 kts 222°
2026-04-26 18:44 38.55881 -74.95062 36176 ft 404 kts 222°
2026-04-26 18:45 38.51536 -74.99604 36175 ft 403 kts 223°
2026-04-26 18:45 38.47308 -75.04298 36177 ft 403 kts 224°
2026-04-26 18:46 38.42964 -75.08836 36166 ft 404 kts 220°
2026-04-26 18:46 38.38426 -75.13084 36165 ft 405 kts 219°
2026-04-26 18:47 38.33870 -75.17296 36164 ft 405 kts 219°
2026-04-26 18:47 38.29333 -75.21562 36163 ft 405 kts 220°
2026-04-26 18:48 38.24819 -75.25839 36159 ft 405 kts 220°
2026-04-26 18:48 38.20304 -75.30115 36154 ft 404 kts 220°
2026-04-26 18:49 38.15818 -75.34360 36156 ft 405 kts 219°
2026-04-26 18:49 38.11290 -75.38629 36157 ft 405 kts 219°
2026-04-26 18:50 38.06749 -75.42908 36169 ft 410 kts 219°
2026-04-26 18:50 38.02118 -75.47149 36177 ft 410 kts 218°
2026-04-26 18:51 37.97412 -75.51219 36177 ft 408 kts 217°
2026-04-26 18:51 37.92722 -75.55250 36174 ft 407 kts 217°
2026-04-26 18:52 37.88055 -75.59289 36170 ft 406 kts 217°
2026-04-26 18:52 37.83385 -75.63312 36163 ft 406 kts 216°
2026-04-26 18:53 37.78571 -75.67051 36159 ft 407 kts 213°
2026-04-26 18:53 37.73666 -75.70626 36152 ft 407 kts 213°
2026-04-26 18:54 37.68774 -75.74225 36147 ft 407 kts 214°
2026-04-26 18:54 37.63937 -75.77849 36134 ft 406 kts 214°
2026-04-26 18:55 37.59084 -75.81506 36131 ft 406 kts 214°
2026-04-26 18:55 37.54223 -75.85154 36129 ft 406 kts 214°
2026-04-26 18:56 37.49484 -75.89012 36136 ft 404 kts 218°
2026-04-26 18:56 37.44928 -75.93163 36135 ft 404 kts 219°
2026-04-26 18:57 37.41156 -75.96624 36134 ft 404 kts 219°
2026-04-26 18:57 37.35830 -76.01380 36131 ft 404 kts 218°
2026-04-26 18:58 37.31217 -76.05440 36119 ft 405 kts 217°
2026-04-26 18:58 37.26595 -76.09501 36114 ft 406 kts 217°
2026-04-26 18:59 37.21966 -76.13574 36111 ft 406 kts 217°
2026-04-26 18:59 37.17340 -76.17653 36108 ft 407 kts 217°
2026-04-26 19:00 37.12701 -76.21733 36108 ft 407 kts 217°
2026-04-26 19:00 37.08090 -76.25783 36106 ft 408 kts 217°
2026-04-26 19:01 37.03444 -76.29849 36105 ft 408 kts 217°
2026-04-26 19:01 36.98788 -76.33923 36105 ft 408 kts 217°
2026-04-26 19:02 36.94135 -76.37981 36099 ft 408 kts 217°
2026-04-26 19:02 36.90265 -76.41357 36105 ft 408 kts 217°
2026-04-26 19:03 36.84818 -76.46101 36103 ft 409 kts 217°
2026-04-26 19:03 36.80149 -76.50163 36106 ft 409 kts 217°
2026-04-26 19:04 36.75481 -76.54217 36103 ft 409 kts 217°
2026-04-26 19:04 36.70832 -76.58246 36108 ft 409 kts 217°
2026-04-26 19:05 36.63815 -76.64320 36108 ft 410 kts 217°
2026-04-26 19:06 36.59123 -76.68362 36113 ft 410 kts 217°
2026-04-26 19:06 36.54434 -76.72408 36118 ft 410 kts 217°
2026-04-26 19:07 36.49733 -76.76454 36119 ft 411 kts 216°
2026-04-26 19:07 36.45053 -76.80471 36128 ft 411 kts 216°
2026-04-26 19:08 36.40342 -76.84517 36122 ft 411 kts 216°
2026-04-26 19:08 36.35640 -76.88560 36129 ft 412 kts 217°
2026-04-26 19:09 36.30953 -76.92656 36126 ft 412 kts 217°
2026-04-26 19:09 36.26281 -76.96760 36132 ft 412 kts 217°
2026-04-26 19:10 36.21594 -77.00856 36128 ft 412 kts 217°
2026-04-26 19:10 36.16910 -77.04936 36123 ft 412 kts 217°
2026-04-26 19:11 36.12218 -77.09013 36112 ft 412 kts 217°
2026-04-26 19:11 36.07540 -77.13069 36115 ft 413 kts 217°
2026-04-26 19:12 36.02833 -77.17151 36122 ft 413 kts 217°
2026-04-26 19:12 35.98125 -77.21223 36110 ft 413 kts 217°
2026-04-26 19:13 35.93414 -77.25295 36107 ft 414 kts 217°
2026-04-26 19:13 35.89529 -77.28820 36100 ft 413 kts 219°
2026-04-26 19:14 35.85028 -77.33232 36094 ft 414 kts 220°
2026-04-26 19:14 35.80562 -77.37651 36091 ft 414 kts 220°
2026-04-26 19:15 35.76033 -77.42040 36091 ft 414 kts 219°
2026-04-26 19:15 35.71481 -77.46394 36090 ft 415 kts 219°
2026-04-26 19:16 35.66927 -77.50751 36091 ft 415 kts 219°
2026-04-26 19:16 35.62381 -77.55114 36086 ft 415 kts 219°
2026-04-26 19:17 35.57830 -77.59478 36080 ft 415 kts 219°
2026-04-26 19:17 35.53271 -77.63835 36079 ft 415 kts 219°
2026-04-26 19:18 35.48716 -77.68183 36080 ft 415 kts 219°
2026-04-26 19:18 35.44186 -77.72507 36079 ft 415 kts 219°
2026-04-26 19:19 35.39624 -77.76844 36073 ft 415 kts 219°
2026-04-26 19:19 35.35051 -77.81192 36071 ft 416 kts 219°
2026-04-26 19:20 35.30478 -77.85524 36071 ft 416 kts 219°
2026-04-26 19:20 35.25891 -77.89865 36072 ft 416 kts 219°
2026-04-26 19:21 35.21304 -77.94209 36073 ft 417 kts 219°
2026-04-26 19:21 35.16718 -77.98550 36072 ft 417 kts 219°
2026-04-26 19:22 35.12119 -78.02885 36068 ft 418 kts 220°
2026-04-26 19:22 35.07531 -78.07202 36057 ft 420 kts 220°
2026-04-26 19:23 35.02896 -78.11562 36057 ft 421 kts 220°
2026-04-26 19:23 34.98256 -78.15924 36059 ft 421 kts 220°
2026-04-26 19:24 34.93606 -78.20290 36057 ft 422 kts 220°
2026-04-26 19:24 34.86606 -78.26841 36054 ft 423 kts 220°
2026-04-26 19:25 34.82720 -78.30473 36046 ft 424 kts 220°
2026-04-26 19:25 34.77245 -78.35580 36052 ft 424 kts 220°
2026-04-26 19:26 34.73021 -78.39516 36056 ft 425 kts 220°
2026-04-26 19:26 34.68326 -78.43890 36048 ft 426 kts 221°
2026-04-26 19:27 34.63626 -78.48259 36053 ft 425 kts 221°
2026-04-26 19:27 34.58951 -78.52590 36048 ft 425 kts 221°
2026-04-26 19:28 34.54395 -78.56803 36050 ft 425 kts 221°
2026-04-26 19:28 34.49686 -78.61154 36036 ft 426 kts 221°
2026-04-26 19:29 34.44972 -78.65508 36036 ft 426 kts 221°
2026-04-26 19:29 34.40251 -78.69865 36031 ft 426 kts 220°
2026-04-26 19:30 34.35415 -78.74051 36026 ft 428 kts 218°
2026-04-26 19:30 34.31308 -78.77405 36022 ft 429 kts 218°
2026-04-26 19:31 34.25539 -78.82119 36021 ft 428 kts 218°
2026-04-26 19:31 34.20627 -78.86200 36020 ft 428 kts 219°
2026-04-26 19:32 34.15718 -78.90298 36016 ft 429 kts 219°
2026-04-26 19:32 34.10801 -78.94388 36015 ft 430 kts 219°
2026-04-26 19:33 34.05878 -78.98475 36013 ft 430 kts 219°
2026-04-26 19:33 34.00952 -79.02561 36011 ft 430 kts 219°
2026-04-26 19:34 33.96020 -79.06640 36008 ft 430 kts 220°
2026-04-26 19:34 33.91110 -79.10694 35994 ft 431 kts 220°
2026-04-26 19:35 33.86125 -79.14815 35988 ft 432 kts 220°
2026-04-26 19:35 33.81197 -79.18877 35986 ft 433 kts 220°
2026-04-26 19:36 33.77030 -79.22307 35990 ft 433 kts 220°
2026-04-26 19:36 33.71236 -79.27064 35996 ft 434 kts 220°
2026-04-26 19:37 33.66242 -79.31164 35999 ft 434 kts 220°
2026-04-26 19:37 33.61310 -79.35330 35995 ft 434 kts 221°
2026-04-26 19:38 33.56392 -79.39544 35997 ft 434 kts 221°
2026-04-26 19:38 33.51470 -79.43743 35995 ft 435 kts 221°
2026-04-26 19:39 33.46562 -79.47914 35993 ft 435 kts 221°
2026-04-26 19:39 33.41642 -79.52070 35994 ft 436 kts 221°
2026-04-26 19:40 33.36682 -79.56238 35986 ft 436 kts 221°
2026-04-26 19:40 33.31729 -79.60422 35991 ft 436 kts 221°
2026-04-26 19:41 33.26762 -79.64607 35993 ft 437 kts 221°
2026-04-26 19:41 33.22629 -79.68077 35992 ft 437 kts 221°
2026-04-26 19:42 33.16816 -79.72955 35982 ft 437 kts 221°
2026-04-26 19:42 33.11847 -79.77122 35980 ft 437 kts 221°
2026-04-26 19:43 33.06897 -79.81268 35972 ft 437 kts 221°
2026-04-26 19:43 33.01905 -79.85434 35974 ft 438 kts 221°
2026-04-26 19:44 32.96911 -79.89600 35970 ft 438 kts 221°
2026-04-26 19:44 32.91912 -79.93768 35966 ft 438 kts 221°
2026-04-26 19:45 32.86911 -79.97929 35963 ft 439 kts 222°
2026-04-26 19:45 32.81902 -80.02097 35958 ft 440 kts 223°
2026-04-26 19:46 32.76876 -80.06271 35959 ft 441 kts 223°
2026-04-26 19:46 32.71846 -80.10440 35959 ft 441 kts 222°
2026-04-26 19:47 32.67666 -80.13904 35959 ft 441 kts 223°
2026-04-26 19:47 32.61815 -80.18752 35961 ft 441 kts 223°
2026-04-26 19:48 32.56780 -80.22906 35960 ft 441 kts 222°
2026-04-26 19:48 32.52016 -80.27362 35955 ft 430 kts 234°
2026-04-26 19:49 32.48553 -80.32825 35954 ft 420 kts 243°
2026-04-26 19:49 32.45294 -80.38587 35953 ft 421 kts 243°
2026-04-26 19:50 32.42021 -80.44336 35956 ft 421 kts 243°
2026-04-26 19:50 32.38731 -80.50091 35950 ft 422 kts 243°
2026-04-26 19:51 32.35448 -80.55833 35953 ft 421 kts 243°
2026-04-26 19:51 32.32168 -80.61578 35956 ft 421 kts 243°
2026-04-26 19:52 32.28908 -80.67287 35964 ft 422 kts 243°
2026-04-26 19:52 32.25623 -80.73026 35969 ft 421 kts 243°
2026-04-26 19:53 32.22334 -80.78747 35969 ft 421 kts 243°
2026-04-26 19:53 32.19045 -80.84454 35966 ft 420 kts 243°
2026-04-26 19:54 32.15761 -80.90156 35963 ft 420 kts 243°
2026-04-26 19:54 32.12482 -80.95852 35956 ft 420 kts 243°
2026-04-26 19:55 32.09201 -81.01545 35946 ft 419 kts 243°
2026-04-26 19:55 32.05914 -81.07225 35939 ft 419 kts 243°
2026-04-26 19:56 32.02622 -81.12900 35929 ft 419 kts 243°
2026-04-26 19:56 31.99334 -81.18571 35919 ft 419 kts 243°
2026-04-26 19:57 31.95602 -81.23930 35904 ft 434 kts 229°
2026-04-26 19:57 31.90572 -81.27978 35897 ft 444 kts 220°
2026-04-26 19:58 31.85316 -81.31830 35895 ft 445 kts 220°
2026-04-26 19:58 31.80071 -81.35691 35896 ft 445 kts 220°
2026-04-26 19:59 31.74822 -81.39558 35909 ft 445 kts 220°
2026-04-26 19:59 31.69562 -81.43411 35914 ft 445 kts 220°
2026-04-26 20:00 31.64310 -81.47253 35919 ft 445 kts 220°
2026-04-26 20:00 31.59065 -81.51102 35925 ft 445 kts 220°
2026-04-26 20:01 31.54693 -81.54289 35929 ft 445 kts 220°
2026-04-26 20:01 31.49431 -81.58110 35930 ft 445 kts 220°
2026-04-26 20:02 31.44162 -81.61937 35936 ft 445 kts 220°
2026-04-26 20:02 31.39788 -81.65113 35941 ft 446 kts 220°
2026-04-26 20:03 31.33629 -81.69581 35942 ft 445 kts 220°
2026-04-26 20:03 31.28362 -81.73397 35943 ft 446 kts 220°
2026-04-26 20:04 31.23089 -81.77224 35949 ft 446 kts 220°
2026-04-26 20:04 31.17817 -81.81043 35950 ft 446 kts 220°
2026-04-26 20:05 31.12527 -81.84861 35947 ft 447 kts 220°
2026-04-26 20:05 31.07237 -81.88674 35948 ft 447 kts 220°
2026-04-26 20:06 31.01939 -81.92490 35942 ft 447 kts 219°
2026-04-26 20:06 30.96635 -81.96297 35940 ft 447 kts 220°
2026-04-26 20:07 30.91368 -82.00083 35939 ft 447 kts 220°
2026-04-26 20:07 30.86076 -82.03888 35942 ft 446 kts 220°
2026-04-26 20:08 30.80790 -82.07676 35938 ft 446 kts 219°
2026-04-26 20:08 30.75496 -82.11458 35936 ft 446 kts 219°
2026-04-26 20:09 30.70205 -82.15240 35933 ft 446 kts 219°
2026-04-26 20:09 30.64770 -82.18781 35930 ft 456 kts 210°
2026-04-26 20:10 30.58473 -82.20479 35928 ft 473 kts 192°
2026-04-26 20:10 30.51912 -82.21197 35933 ft 473 kts 193°
2026-04-26 20:11 30.45402 -82.21933 35927 ft 473 kts 193°
2026-04-26 20:12 30.35562 -82.23056 35929 ft 473 kts 193°
2026-04-26 20:12 30.29004 -82.23804 35928 ft 473 kts 193°
2026-04-26 20:13 30.22444 -82.24542 35929 ft 473 kts 192°
2026-04-26 20:13 30.15860 -82.25146 35922 ft 479 kts 186°
2026-04-26 20:14 30.09160 -82.24424 35914 ft 485 kts 180°
2026-04-26 20:14 30.02450 -82.23547 35911 ft 485 kts 180°
2026-04-26 20:15 29.95736 -82.22687 35911 ft 485 kts 180°
2026-04-26 20:15 29.89018 -82.21831 35911 ft 486 kts 180°
2026-04-26 20:16 29.82302 -82.20973 35913 ft 486 kts 180°
2026-04-26 20:16 29.75627 -82.20116 35918 ft 485 kts 180°
2026-04-26 20:17 29.68903 -82.19249 35920 ft 485 kts 180°
2026-04-26 20:17 29.62192 -82.18385 35923 ft 485 kts 180°
2026-04-26 20:18 29.55471 -82.17532 35924 ft 485 kts 180°
2026-04-26 20:18 29.48805 -82.16693 35922 ft 485 kts 180°
2026-04-26 20:19 29.42089 -82.15848 35920 ft 485 kts 179°
2026-04-26 20:19 29.35372 -82.15003 35924 ft 485 kts 179°
2026-04-26 20:20 29.28664 -82.14165 35933 ft 485 kts 179°
2026-04-26 20:20 29.21951 -82.13322 35938 ft 484 kts 179°
2026-04-26 20:21 29.15256 -82.12673 35939 ft 479 kts 185°
2026-04-26 20:21 29.08594 -82.12535 35939 ft 479 kts 184°
2026-04-26 20:22 29.01928 -82.12402 35938 ft 479 kts 184°
2026-04-26 20:22 28.95267 -82.12264 35940 ft 479 kts 184°
2026-04-26 20:23 28.88604 -82.12117 35939 ft 478 kts 184°
2026-04-26 20:23 28.82027 -82.11980 35612 ft 478 kts 184°
2026-04-26 20:23 28.78670 -82.11910 35367 ft 477 kts 184°
2026-04-26 20:24 28.75352 -82.11839 35081 ft 477 kts 184°
2026-04-26 20:24 28.72029 -82.11770 34166 ft 481 kts 184°
2026-04-26 20:24 28.68665 -82.11697 33168 ft 486 kts 181°
2026-04-26 20:24 28.65261 -82.11318 32108 ft 495 kts 176°
2026-04-26 20:25 28.61851 -82.10830 31271 ft 493 kts 176°
2026-04-26 20:25 28.59553 -82.10501 30682 ft 492 kts 176°
2026-04-26 20:25 28.55100 -82.09861 29504 ft 484 kts 176°
2026-04-26 20:25 28.51779 -82.09384 28837 ft 478 kts 175°
2026-04-26 20:26 28.48497 -82.08874 28145 ft 474 kts 172°
2026-04-26 20:26 28.45285 -82.08074 27463 ft 470 kts 169°
2026-04-26 20:26 28.42121 -82.07261 26819 ft 464 kts 169°
2026-04-26 20:26 28.38986 -82.06453 26182 ft 459 kts 169°
2026-04-26 20:27 28.35887 -82.05653 25522 ft 455 kts 169°
2026-04-26 20:27 28.32815 -82.04862 24888 ft 450 kts 169°
2026-04-26 20:27 28.29775 -82.04098 24252 ft 444 kts 171°
2026-04-26 20:27 28.26741 -82.03610 23635 ft 438 kts 174°
2026-04-26 20:28 28.23739 -82.03162 23069 ft 433 kts 174°
2026-04-26 20:28 28.20765 -82.02719 22484 ft 428 kts 174°
2026-04-26 20:28 28.17825 -82.02281 21940 ft 423 kts 174°
2026-04-26 20:28 28.14920 -82.01977 21429 ft 415 kts 182°
2026-04-26 20:29 28.12080 -82.02254 20948 ft 406 kts 193°
2026-04-26 20:29 28.09391 -82.03103 20412 ft 399 kts 204°
2026-04-26 20:29 28.06913 -82.04458 19865 ft 393 kts 211°
2026-04-26 20:29 28.04523 -82.05933 19314 ft 390 kts 211°
2026-04-26 20:30 28.02141 -82.07392 18785 ft 387 kts 211°
2026-04-26 20:30 27.99807 -82.08816 18270 ft 385 kts 211°
2026-04-26 20:30 27.97455 -82.10246 17763 ft 383 kts 211°
2026-04-26 20:30 27.95113 -82.11669 17284 ft 379 kts 211°
2026-04-26 20:31 27.92801 -82.13076 16809 ft 376 kts 211°
2026-04-26 20:31 27.90506 -82.14473 16328 ft 373 kts 211°
2026-04-26 20:31 27.88232 -82.15860 15853 ft 370 kts 211°
2026-04-26 20:31 27.85974 -82.17234 15376 ft 367 kts 211°
2026-04-26 20:32 27.83734 -82.18595 14925 ft 364 kts 211°
2026-04-26 20:32 27.81513 -82.19942 14450 ft 361 kts 211°
2026-04-26 20:32 27.79305 -82.21285 13967 ft 359 kts 212°
2026-04-26 20:32 27.77165 -82.22701 13479 ft 353 kts 219°
2026-04-26 20:33 27.75311 -82.24435 12999 ft 348 kts 224°
2026-04-26 20:33 27.73495 -82.26237 12497 ft 346 kts 224°
2026-04-26 20:33 27.71693 -82.28016 11999 ft 343 kts 224°
2026-04-26 20:33 27.69899 -82.29781 11515 ft 341 kts 224°
2026-04-26 20:34 27.68125 -82.31525 11038 ft 338 kts 224°
2026-04-26 20:34 27.66359 -82.33263 10614 ft 331 kts 224°
2026-04-26 20:34 27.64693 -82.34897 10481 ft 305 kts 224°
2026-04-26 20:34 27.63103 -82.36389 10189 ft 294 kts 217°
2026-04-26 20:35 27.61297 -82.37427 9908 ft 292 kts 201°
2026-04-26 20:35 27.59304 -82.37865 9560 ft 294 kts 185°
2026-04-26 20:35 27.57266 -82.37659 9191 ft 295 kts 170°
2026-04-26 20:35 27.55264 -82.37188 8987 ft 294 kts 170°
2026-04-26 20:36 27.53262 -82.36719 8835 ft 292 kts 170°
2026-04-26 20:36 27.51277 -82.36256 8427 ft 291 kts 171°
2026-04-26 20:36 27.49329 -82.35809 8014 ft 289 kts 171°
2026-04-26 20:36 27.47361 -82.35358 7641 ft 288 kts 171°
2026-04-26 20:37 27.45396 -82.34910 7265 ft 287 kts 171°
2026-04-26 20:37 27.43452 -82.34465 6916 ft 284 kts 171°
2026-04-26 20:37 27.41518 -82.34022 6521 ft 282 kts 171°
2026-04-26 20:37 27.39597 -82.33583 6131 ft 281 kts 171°
2026-04-26 20:38 27.37689 -82.33144 5754 ft 279 kts 171°
2026-04-26 20:38 27.35798 -82.32709 5363 ft 276 kts 171°
2026-04-26 20:38 27.33915 -82.32275 5033 ft 274 kts 171°
2026-04-26 20:38 27.32061 -82.31845 4999 ft 265 kts 171°
2026-04-26 20:39 27.30311 -82.31439 5020 ft 247 kts 171°
2026-04-26 20:39 27.29222 -82.31188 5024 ft 237 kts 171°
2026-04-26 20:39 27.27094 -82.30701 5011 ft 233 kts 171°
2026-04-26 20:39 27.25502 -82.30335 5010 ft 234 kts 171°
2026-04-26 20:40 27.23911 -82.29971 5023 ft 233 kts 171°
2026-04-26 20:40 27.22317 -82.29605 5027 ft 233 kts 171°
2026-04-26 20:40 27.20724 -82.29240 5012 ft 233 kts 171°
2026-04-26 20:40 27.19131 -82.28876 5011 ft 234 kts 171°
2026-04-26 20:41 27.17563 -82.28409 5010 ft 235 kts 155°
2026-04-26 20:41 27.16185 -82.27406 5010 ft 237 kts 145°
2026-04-26 20:41 27.14876 -82.26279 5009 ft 237 kts 144°
2026-04-26 20:41 27.13576 -82.25136 4876 ft 236 kts 144°
2026-04-26 20:42 27.12291 -82.24002 4603 ft 234 kts 144°
2026-04-26 20:42 27.11032 -82.22888 4305 ft 234 kts 143°
2026-04-26 20:42 27.09743 -82.21744 4023 ft 233 kts 143°
2026-04-26 20:42 27.08729 -82.20373 3748 ft 235 kts 114°
2026-04-26 20:43 27.08384 -82.18600 3462 ft 233 kts 96°
2026-04-26 20:43 27.08258 -82.16785 3187 ft 233 kts 94°
2026-04-26 20:43 27.08159 -82.14964 3021 ft 234 kts 94°
2026-04-26 20:43 27.08067 -82.13141 3000 ft 234 kts 93°
2026-04-26 20:44 27.07978 -82.11310 3002 ft 234 kts 94°
2026-04-26 20:44 27.07889 -82.09477 3007 ft 235 kts 94°
2026-04-26 20:44 27.07801 -82.07641 3010 ft 235 kts 94°
2026-04-26 20:44 27.07709 -82.05810 3004 ft 235 kts 96°
2026-04-26 20:45 27.07237 -82.04085 3027 ft 230 kts 123°
2026-04-26 20:45 27.06327 -82.02750 2969 ft 208 kts 131°
2026-04-26 20:45 27.05417 -82.01499 2547 ft 208 kts 131°
2026-04-26 20:45 27.04502 -82.00245 2116 ft 208 kts 131°
2026-04-26 20:46 27.03590 -81.98992 1745 ft 207 kts 132°
2026-04-26 20:46 27.02699 -81.97769 1599 ft 194 kts 132°
2026-04-26 20:46 27.01882 -81.96639 1610 ft 181 kts 132°
2026-04-26 20:46 27.01137 -81.95611 1613 ft 160 kts 133°
2026-04-26 20:47 27.00348 -81.94812 1590 ft 147 kts 155°
2026-04-26 20:47 27.00037 -81.94649 1594 ft 145 kts 164°
2026-04-26 20:47 26.98443 -81.94607 1383 ft 135 kts 203°
2026-04-26 20:47 26.97618 -81.95081 1201 ft 133 kts 212°
2026-04-26 20:48 26.97083 -81.95415 1064 ft 132 kts 212°
2026-04-26 20:48 26.96008 -81.96085 800 ft 132 kts 212°
2026-04-26 20:48 26.95203 -81.96586 611 ft 133 kts 212°
2026-04-26 20:48 26.94669 -81.96924 475 ft 133 kts 212°
2026-04-26 20:49 26.93870 -81.97434 299 ft 133 kts 213°
2026-04-26 20:49 26.92801 -81.98104 94 ft 133 kts 212°
2026-04-26 20:49 26.92059 -81.98571 33 ft 91 kts 208°
2026-04-26 20:49 26.91673 -81.98807 36 ft 53 kts 209°
2026-04-26 20:50 26.91408 -81.98972 32 ft 31 kts 209°
2026-04-26 20:50 26.91281 -81.99050 30 ft 31 kts 208°
2026-04-26 20:50 26.91110 -81.99158 27 ft 23 kts 211°
2026-04-26 20:50 26.91068 -81.99238 29 ft 9 kts 310°
2026-04-26 20:51 26.91111 -81.99272 30 ft 6 kts 327°
2026-04-26 20:51 26.91184 -81.99322 31 ft 21 kts 328°
2026-04-26 20:51 26.91318 -81.99409 31 ft 24 kts 330°
2026-04-26 20:51 26.91444 -81.99492 32 ft 21 kts 329°
2026-04-26 20:52 26.91571 -81.99581 29 ft 23 kts 328°
2026-04-26 20:52 26.91677 -81.99653 28 ft 10 kts 328°
2026-04-26 20:52 26.91707 -81.99702 28 ft 7 kts 247°
2026-04-26 20:52 26.91691 -81.99731 29 ft 2 kts 240°
2026-04-26 20:53 26.91688 -81.99737 30 ft 2 kts 241°
2026-04-26 20:53 26.91684 -81.99744 30 ft 1 kts 241°
2026-04-26 20:53 26.91683 -81.99748 30 ft 0 kts 241°
2026-04-26 20:53 26.91682 -81.99748 30 ft 0 kts 241°